This demonstration page uses our WeatherBlox Daily Observations layout. Learn more.

Left ArrowRight Arrow

Hourly Observations for May 16, 2021

Temp ( °F °C ) Dew Point ( °F °C ) Humidity (%) Winds ( mph kmh ) Pressure ( in mb ) Visibility ( mi km ) Precip ( " mm )
12:53 am 00:53 Clear 54 12.2 38 3.3 55 55 SSW 6 9 29.91 1013 10 16 0.00 0.00
1:53 am 01:53 Clear 49 9.4 37 2.8 64 64 SW 6 9 29.92 1013 10 16 0.00 0.00
2:53 am 02:53 Clear 45 7.2 37 2.8 74 74 W 5 7 29.91 1013 10 16 0.00 0.00
3:53 am 03:53 Clear 43 6.1 37 2.8 80 80 WNW 6 9 29.93 1013 10 16 0.00 0.00
4:53 am 04:53 Clear 44 6.7 37 2.8 76 76 WSW 3 6 29.92 1013 10 16 0.00 0.00
5:53 am 05:53 Sunny 45 7.2 39 3.9 80 80 Calm 29.92 1013 10 16 0.00 0.00
6:53 am 06:53 Sunny 49 9.4 42 5.6 77 77 WSW 8 13 29.93 1013 10 16 0.00 0.00
7:53 am 07:53 Sunny 54 12.2 43 6.1 67 67 WSW 12 19 29.93 1014 10 16 0.00 0.00
8:53 am 08:53 Sunny 62 16.7 44 6.7 52 52 SW 10 17 29.93 1014 10 16 0.00 0.00
9:53 am 09:53 Sunny 69 20.6 40 4.4 35 35 SW 15 24 29.93 1014 10 16 0.00 0.00
10:53 am 10:53 Sunny 72 22.2 38 3.3 29 29 WSW 14 22 29.91 1013 10 16 0.00 0.00
11:53 am 11:53 Sunny 76 24.4 37 2.8 24 24 SW 15 24 29.89 1012 10 16 0.00 0.00
12:53 pm 12:53 Sunny 77 25 36 2.2 23 23 WSW 9 15 29.88 1012 10 16 0.00 0.00
1:53 pm 13:53 Sunny 77 25 35 1.7 22 22 SW 12 19 29.88 1012 10 16 0.00 0.00
2:53 pm 14:53 Sunny 76 24.4 33 0.6 21 21 WSW 7 11 29.87 1012 10 16 0.00 0.00
3:53 pm 15:53 Sunny 79 26.1 31 -0.6 17 17 SW 9 15 29.86 1011 10 16 0.00 0.00
4:53 pm 16:53 Sunny 77 25 29 -1.7 17 17 SW 3 6 29.84 1011 10 16 0.00 0.00
5:53 pm 17:53 Sunny 78 25.6 31 -0.6 18 18 SSE 6 9 29.83 1010 10 16 0.00 0.00
6:53 pm 18:53 Sunny 74 23.3 33 0.6 22 22 SW 7 11 29.82 1010 10 16 0.00 0.00
7:53 pm 19:53 Sunny 74 23.3 39 3.9 28 28 SSW 5 7 29.81 1010 10 16 0.00 0.00
8:53 pm 20:53 Sunny 68 20 43 6.1 40 40 SE 3 6 29.80 1009 10 16 0.00 0.00
9:53 pm 21:53 Clear 57 13.9 44 6.7 62 62 SSE 6 9 29.81 1010 10 16 0.00 0.00
10:53 pm 22:53 Clear 56 13.3 39 3.9 53 53 SE 5 7 29.81 1009 10 16 0.00 0.00
11:53 pm 23:53 Clear 56 13.3 39 3.9 53 53 ENE 3 6 29.80 1009 10 16 0.00 0.00

Powered by AerisWeather